This is the latest recevied weather packets stored in our database for station/object XE1GMR. If no packets are shown the sender has not sent any weather packets the latest 10 day(s).
| Time | Temp. | Humidity | Pressure | Rain* | Wind** | Luminosity | Snow |
|---|---|---|---|---|---|---|---|
| 1778208464 | 22.22° C | 58% | 1121.7 hPa | 0 mm | - | 0 W/m² | - |
| 1778208161 | 22.22° C | 59% | 1121.7 hPa | 0 mm | - | 0 W/m² | - |
| 1778207858 | 22.22° C | 59% | 1121.6 hPa | 0 mm | - | 0 W/m² | - |
| 1778207555 | 22.78° C | 60% | 1121.4 hPa | 0 mm | - | 0 W/m² | - |
| 1778207251 | 22.78° C | 58% | 1121.7 hPa | 0 mm | - | 0 W/m² | - |
| 1778206948 | 22.78° C | 57% | 1121.7 hPa | 0 mm | - | 0 W/m² | - |
| 1778206645 | 22.78° C | 58% | 1121.7 hPa | 0 mm | - | 0 W/m² | - |
| 1778206340 | 22.78° C | 60% | 1121.3 hPa | 0 mm | - | 0 W/m² | - |
| 1778206038 | 22.78° C | 61% | 1121.2 hPa | 0 mm | - | 0 W/m² | - |
| 1778205432 | 23.33° C | 61% | 1121.1 hPa | 0 mm | - | 0 W/m² | - |
| 1778205129 | 23.33° C | 61% | 1121 hPa | 0 mm | - | 0 W/m² | - |
| 1778204825 | 23.33° C | 61% | 1120.9 hPa | 0 mm | - | 0 W/m² | - |
| 1778204521 | 23.33° C | 60% | 1120.9 hPa | 0 mm | - | 0 W/m² | - |
| 1778204218 | 23.89° C | 59% | 1120.7 hPa | 0 mm | - | 0 W/m² | - |
| 1778203915 | 23.89° C | 57% | 1120.7 hPa | 0 mm | - | 0 W/m² | - |
| 1778203612 | 23.89° C | 57% | 1120.7 hPa | 0 mm | - | 0 W/m² | - |
| 1778203309 | 23.89° C | 55% | 1120.4 hPa | 0 mm | - | 0 W/m² | - |
| 1778203008 | 24.44° C | 53% | 1120.3 hPa | 0 mm | - | 0 W/m² | - |
| 1778202705 | 25° C | 51% | 1120.2 hPa | 0 mm | - | 0 W/m² | - |
| 1778202401 | 25° C | 50% | 1120.2 hPa | 0 mm | - | 0 W/m² | - |
| 1778202099 | 25° C | 49% | 1120.2 hPa | 0 mm | - | 0 W/m² | - |
| 1778201796 | 25.56° C | 46% | 1119.9 hPa | 0 mm | - | 1 W/m² | - |
| 1778201493 | 25.56° C | 43% | 1119.6 hPa | 0 mm | - | 4 W/m² | - |
| 1778201188 | 25.56° C | 43% | 1119.7 hPa | 0 mm | - | 9 W/m² | - |
| 1778200885 | 25.56° C | 43% | 1119.7 hPa | 0 mm | - | 16 W/m² | - |
* Rain latest hour (hover to see other rain measurements)
** Current wind speed in m/s (hover to see current wind gust speed)